Regional Weather Roundup
Issued by NWS Green Bay, WI

Home | Current Version | Previous Version | Text Only | Print | Product List | Glossary On
Versions: 1 2 3 4 5 6 7 8 9 10 11 12 13 14 15 16 17 18 19 20 21 22 23 24 25 26 27 28 29 30 31 32 33 34 35 36 37 38 39 40 41 42 43 44 45 46 47 48 49 50
000
ASUS43 KGRB 312210
RWRGRB

NORTH-CENTRAL AND NORTHEAST WISCONSIN REGIONAL WEATHER ROUNDUP
NATIONAL WEATHER SERVICE GREEN BAY WI
500 PM CDT THU JUL 31 2014

WIZ005-009-010>012-018-019-312300-
NORTH CENTRAL WISCONSIN

CITY           SKY/WX    TMP DP  RH WIND       PRES   REMARKS
IRONWOOD       NOT AVBL
MANITOWISH WTR MOSUNNY   74  51  42 NW8       29.99S
ARBOR VITAE    SUNNY     80  49  34 NW6       29.99S
EAGLE RIVER    MOSUNNY   74  45  35 NW9       29.99R
LAND O LAKES   SUNNY     75  45  34 NW9       30.00S
RHINELANDER    SUNNY     76  48  37 NW7       30.00R
PHILLIPS       MOSUNNY   76  54  46 NW3       29.99R
ANTIGO         MOSUNNY   76  54  46 NW8       29.98S
TOMAHAWK       MOSUNNY   75  53  45 NW9       29.99S
MERRILL        MOSUNNY   77  63  63 W10       29.98S
$$

WIZ013-073-312300-
NORTHEAST WISCONSIN

CITY           SKY/WX    TMP DP  RH WIND       PRES   REMARKS
IRON MOUNTAIN  MOSUNNY   78  47  33 NW10      29.95S
MARINETTE      MOSUNNY   79  52  38 NW5       29.93S
OCONTO         SUNNY     80  51  36 NW5       29.94R
$$

WIZ017-030-035>037-045-312300-
CENTRAL WISCONSIN

CITY           SKY/WX    TMP DP  RH WIND       PRES   REMARKS
MEDFORD        MOSUNNY   69  59  69 W7        30.00S
WAUSAU         LGT RAIN  72  63  73 NW6       29.97R
MOSINEE        MOSUNNY   75  59  57 W14G21    29.99S
MARSHFIELD     MOSUNNY   79  60  52 W10       30.00R
WISC RAPIDS    PTSUNNY   79  60  52 NW7       30.00R
STEVENS POINT  MOSUNNY   75  58  55 W10G17    29.98F
WAUPACA        MOSUNNY   82  55  40 NW9       29.97R
SHAWANO        MOSUNNY   81  51  35 W6        29.95S
CLINTONVILLE   MOSUNNY   75  55  50 W7        29.96R
$$

WIZ038-039-048-051-312300-
FOX VALLEY

CITY           SKY/WX    TMP DP  RH WIND       PRES   REMARKS
NWS GREEN BAY  MOSUNNY   79  61  53 W8        29.96R
APPLETON       PTSUNNY   68  57  68 SW7       29.98R
OSHKOSH        MOSUNNY   79  64  60 VRB3      29.97R
FOND DU LAC    MOSUNNY   79  60  52 CALM      29.98S
$$

WIZ022-050-052-312300-
EAST CENTRAL WISCONSIN

CITY           SKY/WX    TMP DP  RH WIND       PRES   REMARKS
STURGEON BAY   SUNNY     79  48  34 W8        29.96S
MANITOWOC      CLOUDY    69  63  81 S7        29.98S
SHEBOYGAN      PTSUNNY   72  60  66 SW6       29.98S
$$

LMZ563-521-522-541>543-312300-
LAKESHORE

STATION/POSITION TIME  TEMP    WIND        PRES    VSBY  WAVE
                       AIR SEA DIR/SP/G                  HT/PER
                 (UTC) (F)     (DEG/KT/KT) (MB)    (MI)  (FT/S)
SHEBOYGAN LKSHOR 2200   69     180/  7/  8 1015.2R
KEWAUNEE LKSHORE 2200   58     170/  9/ 11 1014.1R
NORTHPORT PIER   2200   72     150/  8/ 11 1013.5S
N MID LAKE BUOY  2200   59 55  210/ 14/ 14 1013.1F         2/ 4
S GREEN BAY BUOY 2200   74 70  140/  4     1015.0S
SISTER BAY LKSHO 2100   83     270/ 10/ 11   N/A
STURGEON BAY CG  2100   62 66  180/ 13     1014.4      6   2
CHAMBERS ISLAND  2200   75     170/  5/ 10 1013.5F
MENOMINEE LKSHOR 2200   80     260/  5/  8 1014.2R
$$


USA.gov is the U.S. government's official web portal to all federal, state and local government web resources and services.